Hourly Weather Kozy

Today, 20 October, Tuesday

Time Temperature Precipitation Wind Pressure Humidity
00:00 +5°C° 0 mm 2 mps 759 mmHg 90%
01:00 +5°C° 0 mm 2 mps 759 mmHg 90%
02:00 +5°C° 0 mm 2 mps 759 mmHg 90%
03:00 +4°C° 0 mm 2 mps 758 mmHg 91%
04:00 +5°C° 0 mm 1 mps 758 mmHg 91%
05:00 +4°C° 0 mm 2 mps 758 mmHg 91%
06:00 +5°C° 0 mm 2 mps 759 mmHg 91%
07:00 +5°C° 0 mm 2 mps 759 mmHg 91%
08:00 +5°C° 0 mm 3 mps 758 mmHg 86%
09:00 +8°C° 0 mm 3 mps 758 mmHg 80%
10:00 +8°C° 0 mm 4 mps 758 mmHg 75%
11:00 +9°C° 0 mm 5 mps 757 mmHg 71%
12:00 +10°C° 0 mm 5 mps 757 mmHg 66%
13:00 +11°C° 0 mm 6 mps 757 mmHg 62%
14:00 +12°C° 0 mm 5 mps 756 mmHg 64%
15:00 +10°C° 0 mm 5 mps 755 mmHg 67%
16:00 +11°C° 0 mm 4 mps 755 mmHg 69%
17:00 +9°C° 0 mm 5 mps 754 mmHg 70%
18:00 +9°C° 0 mm 5 mps 754 mmHg 71%
19:00 +8°C° 0 mm 6 mps 753 mmHg 72%
20:00 +9°C° 0 mm 6 mps 753 mmHg 72%
21:00 +9°C° 0 mm 6 mps 753 mmHg 71%
22:00 +9°C° 0 mm 6 mps 753 mmHg 71%
23:00 +9°C° 0 mm 6 mps 753 mmHg 72%

Tomorrow, 21 October, Wednesday

Time Temperature Precipitation Wind Pressure Humidity
00:00 +8°C° 0 mm 6 mps 753 mmHg 73%
01:00 +8°C° 0 mm 6 mps 752 mmHg 73%
02:00 +9°C° 0 mm 5 mps 752 mmHg 73%
03:00 +9°C° 0 mm 5 mps 752 mmHg 73%
04:00 +10°C° 0 mm 4 mps 752 mmHg 73%
05:00 +10°C° 0 mm 4 mps 752 mmHg 74%
06:00 +10°C° 0 mm 4 mps 752 mmHg 75%
07:00 +10°C° 0 mm 3 mps 752 mmHg 76%
08:00 +10°C° 0 mm 3 mps 752 mmHg 75%
09:00 +10°C° 0 mm 3 mps 752 mmHg 74%
10:00 +10°C° 0 mm 3 mps 752 mmHg 73%
11:00 +11°C° 0 mm 3 mps 752 mmHg 72%
12:00 +11°C° 0 mm 3 mps 752 mmHg 70%
13:00 +12°C° 0 mm 4 mps 752 mmHg 68%
14:00 +12°C° 0 mm 4 mps 751 mmHg 70%
15:00 +12°C° 0 mm 4 mps 751 mmHg 71%
16:00 +12°C° 0 mm 4 mps 751 mmHg 72%
17:00 +12°C° 0 mm 4 mps 751 mmHg 74%
18:00 +11°C° 0 mm 4 mps 751 mmHg 75%
19:00 +10°C° 0 mm 5 mps 751 mmHg 77%
20:00 +10°C° 0 mm 5 mps 751 mmHg 75%
21:00 +10°C° 0 mm 5 mps 751 mmHg 74%
22:00 +10°C° 0 mm 5 mps 751 mmHg 73%
23:00 +10°C° 0 mm 5 mps 751 mmHg 73%

Day after tomorrow, 22 October, Thursday

Time Temperature Precipitation Wind Pressure Humidity
00:00 +10°C° 0 mm 5 mps 751 mmHg 72%
01:00 +10°C° 0 mm 5 mps 751 mmHg 72%
02:00 +10°C° 0 mm 5 mps 751 mmHg 72%
03:00 +10°C° 0 mm 5 mps 751 mmHg 73%
04:00 +10°C° 0 mm 5 mps 751 mmHg 73%
05:00 +11°C° 0 mm 4 mps 751 mmHg 75%
06:00 +10°C° 0 mm 4 mps 751 mmHg 77%
07:00 +10°C° 0 mm 4 mps 752 mmHg 79%
08:00 +12°C° 0 mm 4 mps 752 mmHg 74%
09:00 +13°C° 0 mm 4 mps 752 mmHg 70%
10:00 +15°C° 0 mm 5 mps 752 mmHg 65%
11:00 +16°C° 0 mm 5 mps 752 mmHg 63%
12:00 +18°C° 0 mm 4 mps 752 mmHg 61%
13:00 +19°C° 0 mm 4 mps 752 mmHg 60%
14:00 +18°C° 0 mm 4 mps 751 mmHg 64%
15:00 +17°C° 0 mm 4 mps 751 mmHg 68%
16:00 +16°C° 0 mm 3 mps 751 mmHg 72%
17:00 +16°C° 0 mm 3 mps 751 mmHg 74%
18:00 +14°C° 0 mm 4 mps 750 mmHg 76%
19:00 +14°C° 0 mm 4 mps 750 mmHg 78%
20:00 +13°C° 0 mm 4 mps 750 mmHg 78%
21:00 +13°C° 0 mm 4 mps 750 mmHg 78%
22:00 +13°C° 0 mm 4 mps 750 mmHg 78%
23:00 +13°C° 0 mm 4 mps 750 mmHg 77%

23 October, Friday

Time Temperature Precipitation Wind Pressure Humidity
00:00 +13°C° 0 mm 4 mps 750 mmHg 76%
01:00 +13°C° 0 mm 5 mps 749 mmHg 75%
02:00 +13°C° 0 mm 4 mps 749 mmHg 75%
03:00 +13°C° 0 mm 4 mps 749 mmHg 75%
04:00 +13°C° 0 mm 4 mps 749 mmHg 75%
05:00 +13°C° 0.1 mm 4 mps 749 mmHg 78%
06:00 +13°C° 0.1 mm 4 mps 749 mmHg 81%
07:00 +13°C° 0.1 mm 4 mps 748 mmHg 83%
08:00 +14°C° 0.1 mm 5 mps 749 mmHg 81%
09:00 +14°C° 0.1 mm 6 mps 749 mmHg 79%
10:00 +14°C° 0.1 mm 6 mps 749 mmHg 77%
11:00 +15°C° 0 mm 7 mps 749 mmHg 74%
12:00 +16°C° 0 mm 7 mps 749 mmHg 70%
13:00 +16°C° 0 mm 7 mps 749 mmHg 67%
14:00 +16°C° 0.1 mm 7 mps 749 mmHg 67%
15:00 +15°C° 0.1 mm 6 mps 749 mmHg 67%
16:00 +14°C° 0.1 mm 6 mps 749 mmHg 67%
17:00 +14°C° 0 mm 5 mps 749 mmHg 70%
18:00 +13°C° 0 mm 5 mps 750 mmHg 72%
19:00 +12°C° 0 mm 4 mps 750 mmHg 74%
20:00 +12°C° 0 mm 4 mps 750 mmHg 76%
21:00 +11°C° 0 mm 4 mps 751 mmHg 77%
22:00 +10°C° 0 mm 4 mps 751 mmHg 79%
23:00 +10°C° 0 mm 4 mps 751 mmHg 80%

24 October, Saturday

Time Temperature Precipitation Wind Pressure Humidity
00:00 +10°C° 0 mm 4 mps 751 mmHg 81%
01:00 +10°C° 0 mm 4 mps 751 mmHg 82%
02:00 +10°C° 0 mm 4 mps 751 mmHg 81%
03:00 +9°C° 0 mm 5 mps 750 mmHg 80%
04:00 +9°C° 0 mm 5 mps 750 mmHg 79%
05:00 +9°C° 0 mm 5 mps 750 mmHg 78%
06:00 +9°C° 0 mm 6 mps 750 mmHg 76%
07:00 +9°C° 0 mm 7 mps 750 mmHg 75%
08:00 +9°C° 0.3 mm 7 mps 750 mmHg 75%
09:00 +9°C° 0.3 mm 8 mps 750 mmHg 75%
10:00 +9°C° 0.3 mm 8 mps 750 mmHg 75%
11:00 +10°C° 0.2 mm 9 mps 750 mmHg 70%
12:00 +10°C° 0.2 mm 9 mps 751 mmHg 66%
13:00 +11°C° 0.2 mm 9 mps 751 mmHg 61%
14:00 +10°C° 0.1 mm 8 mps 751 mmHg 63%
15:00 +10°C° 0.1 mm 7 mps 752 mmHg 65%
16:00 +9°C° 0.1 mm 6 mps 752 mmHg 67%
17:00 +9°C° 0 mm 6 mps 753 mmHg 69%
18:00 +8°C° 0 mm 6 mps 753 mmHg 70%
19:00 +8°C° 0 mm 6 mps 754 mmHg 72%
20:00 +7°C° 0 mm 5 mps 754 mmHg 74%
21:00 +7°C° 0 mm 5 mps 754 mmHg 76%
22:00 +7°C° 0 mm 5 mps 755 mmHg 78%
23:00 +6°C° 0 mm 5 mps 755 mmHg 80%

25 October, Sunday

Time Temperature Precipitation Wind Pressure Humidity
00:00 +6°C° 0 mm 4 mps 755 mmHg 82%
01:00 +6°C° 0 mm 4 mps 755 mmHg 83%
02:00 +5°C° 0 mm 4 mps 756 mmHg 85%
03:00 +5°C° 0 mm 3 mps 756 mmHg 87%
04:00 +5°C° 0 mm 3 mps 756 mmHg 89%
05:00 +4°C° 0 mm 3 mps 756 mmHg 90%
06:00 +4°C° 0 mm 3 mps 757 mmHg 91%
07:00 +4°C° 0 mm 3 mps 757 mmHg 92%
08:00 +5°C° 0 mm 3 mps 757 mmHg 86%
09:00 +8°C° 0 mm 3 mps 757 mmHg 80%
10:00 +9°C° 0 mm 3 mps 757 mmHg 74%
11:00 +10°C° 0 mm 3 mps 757 mmHg 69%
12:00 +11°C° 0 mm 3 mps 757 mmHg 64%
13:00 +12°C° 0 mm 3 mps 756 mmHg 59%
14:00 +12°C° 0 mm 2 mps 756 mmHg 62%
15:00 +12°C° 0 mm 2 mps 756 mmHg 65%
16:00 +10°C° 0 mm 2 mps 756 mmHg 68%
17:00 +9°C° 0 mm 2 mps 756 mmHg 69%
18:00 +9°C° 0 mm 2 mps 756 mmHg 71%
19:00 +8°C° 0 mm 2 mps 756 mmHg 73%
20:00 +8°C° 0 mm 2 mps 756 mmHg 74%
21:00 +7°C° 0 mm 3 mps 756 mmHg 74%
22:00 +7°C° 0 mm 3 mps 756 mmHg 75%
23:00 +7°C° 0 mm 3 mps 755 mmHg 75%

26 October, Monday

Time Temperature Precipitation Wind Pressure Humidity
00:00 +7°C° 0 mm 3 mps 755 mmHg 76%
01:00 +5°C° 0 mm 3 mps 755 mmHg 76%
02:00 +5°C° 0 mm 3 mps 755 mmHg 77%
03:00 +5°C° 0 mm 3 mps 754 mmHg 78%
04:00 +5°C° 0 mm 3 mps 754 mmHg 79%
05:00 +5°C° 0 mm 3 mps 754 mmHg 80%
06:00 +5°C° 0 mm 3 mps 754 mmHg 81%
07:00 +4°C° 0 mm 3 mps 754 mmHg 81%
08:00 +7°C° 0 mm 3 mps 754 mmHg 76%
09:00 +8°C° 0 mm 4 mps 754 mmHg 71%
10:00 +10°C° 0 mm 4 mps 754 mmHg 65%
11:00 +11°C° 0 mm 4 mps 754 mmHg 63%
12:00 +12°C° 0 mm 4 mps 753 mmHg 60%
13:00 +13°C° 0 mm 4 mps 753 mmHg 57%
14:00 +13°C° 0 mm 3 mps 753 mmHg 61%
15:00 +12°C° 0 mm 3 mps 753 mmHg 65%
16:00 +11°C° 0 mm 3 mps 753 mmHg 69%
17:00 +10°C° 0 mm 3 mps 753 mmHg 71%
18:00 +9°C° 0 mm 3 mps 753 mmHg 73%
19:00 +9°C° 0 mm 3 mps 753 mmHg 75%
20:00 +8°C° 0 mm 3 mps 753 mmHg 76%
21:00 +8°C° 0 mm 3 mps 753 mmHg 77%
22:00 +8°C° 0 mm 3 mps 754 mmHg 77%
23:00 +8°C° 0 mm 3 mps 754 mmHg 78%
Show more